Lid_Strength_Index
-1 -1 -1 2 7 8 10 9 7 7 8 5 5 6 7 6 8 10 1 1 2 0 -1 -1 -2 -2 -2 -1 -1 -1 -1 -1 -1 -1 -1 -1 -1 -1 -1 -1 -1 -1 -1 -1 -1 -1 -1 -1 -1
-0 1 1 4 9 11 10 8 8 7 6 4 5 5 7 8 4 4 3 1 0 -0 -1 -1 -2 -2 -2 -1 -1 -1 -1 -1 -1 -1 -1 -1 -1 -1 -1 -1 -1 -1 -2 -1 -1 -1 -1 -1 -1
0 1 4 7 9 11 10 7 7 6 5 6 6 4 6 7 4 3 1 -0 -1 -0 -1 -1 -2 -2 -2 -1 -1 -1 -1 -1 -1 -1 -1 -1 -1 -1 -1 -1 -1 -1 -2 -1 -1 -1 -1 -1 -1
1 2 5 9 11 10 8 6 6 7 7 6 5 7 5 5 4 5 2 3 0 -0 -1 -1 -2 -2 -2 -1 -1 -1 -1 -1 -1 -1 -1 -1 -1 -1 -1 -1 -1 -1 -1 -1 -1 -1 -1 -1 -1
1 3 8 10 10 9 7 6 6 7 7 6 6 7 6 4 4 6 5 3 1 3 -1 -1 -1 -1 -1 -1 -1 -1 -1 -1 -1 -1 -1 -1 -1 -1 -1 -1 -1 -1 -1 -1 -1 -1 -1 -1 -1
5 5 10 11 10 8 7 7 6 6 7 7 5 6 5 4 4 5 6 3 4 4 6 5 2 -0 -1 -1 -1 -1 -1 -1 -1 -1 -1 -1 -1 -1 -1 -1 -1 -1 -1 -1 -1 -1 -1 -1 -1
6 7 9 9 9 9 8 7 7 7 7 7 5 6 4 4 3 5 5 5 4 4 5 5 5 5 3 1 -1 -1 -1 -1 -2 -2 -1 -1 -1 -1 -1 -1 -1 -1 -1 -1 -1 -1 -1 -1 -1
5 6 9 8 9 9 8 8 7 7 8 7 6 6 6 4 3 5 5 5 6 6 5 5 5 5 5 5 3 2 -0 -1 -1 -1 -1 -1 -0 -0 -1 -1 -1 -1 -1 -1 -2 -1 -1 -1 -2
6 8 9 9 8 9 8 8 8 8 7 8 7 6 5 4 4 4 4 4 4 4 4 3 3 4 5 5 5 3 4 2 -0 -1 0 -0 -1 -1 -1 -0 -0 -1 -1 -1 -1 -1 -2 -1 -1
7 8 9 9 8 8 8 8 8 8 8 8 8 7 6 5 5 5 5 5 5 5 4 4 4 3 3 4 3 4 4 4 4 2 -1 -1 -1 -1 -1 0 0 -1 -1 -1 -1 -1 -1 -1 -1
8 9 9 9 9 8 9 9 8 8 8 8 8 7 7 7 7 6 6 6 6 5 4 4 3 3 3 4 3 3 2 3 3 3 3 2 1 -1 -1 -1 -1 -1 1 -1 -1 -1 -1 -1 -1
10 9 9 9 10 9 9 9 9 9 9 8 8 7 8 8 8 7 7 6 5 5 4 3 3 2 2 2 2 2 2 2 2 2 3 3 2 1 -1 -1 -1 -1 -1 -1 -1 -1 -1 -1 -1
9 10 9 9 9 9 10 10 10 9 9 8 8 8 8 8 8 7 6 5 5 4 3 2 2 2 2 2 2 2 2 2 1 1 1 1 2 1 -0 -1 -1 -1 -1 -1 -1 -0 -0 -0 -1
9 9 10 9 9 9 10 10 10 9 9 9 9 9 8 8 7 6 6 5 4 4 3 3 3 2 2 2 2 2 2 2 1 1 1 1 1 1 1 1 -1 -1 -1 -1 -1 -0 -0 0 -0
10 11 10 10 10 10 10 11 11 9 9 9 9 9 8 8 6 6 4 4 4 4 4 3 3 3 3 3 3 2 2 3 2 2 1 1 1 1 1 1 1 -0 -1 -1 -1 -0 -0 -0 -0
12 11 12 11 10 10 10 11 11 10 10 9 9 8 8 7 6 4 4 4 4 4 4 4 4 3 3 3 3 2 2 2 2 2 2 2 2 1 1 1 1 1 0 -1 -0 -0 1 1 1
13 14 14 13 10 11 11 11 11 10 9 9 8 7 7 7 6 5 4 4 4 4 4 4 4 4 3 3 3 2 2 2 2 2 2 2 2 2 2 2 1 1 1 -0 -0 0 0 1 1
15 15 14 14 12 12 11 11 9 8 9 8 7 7 7 7 7 5 4 4 4 4 4 4 4 4 4 3 3 2 2 2 2 2 2 2 2 2 2 1 1 0 0 -0 -0 0 0 1 1
11 12 13 12 11 11 11 11 10 8 8 8 8 8 7 7 6 5 5 5 5 5 5 5 4 4 4 4 4 4 4 4 3 2 2 2 2 2 1 2 1 1 1 1 0 0 1 1 1
11 12 13 12 11 11 11 11 9 9 8 8 8 8 7 7 6 6 5 5 5 5 5 5 5 5 5 4 5 5 4 3 3 2 1 1 1 1 1 1 1 1 1 1 1 1 1 1 0
12 12 13 13 11 12 12 11 10 9 9 8 8 7 8 7 7 6 6 5 6 6 6 5 5 5 4 4 4 5 4 3 4 3 3 1 1 2 2 1 1 1 1 1 0 0 1 2 1
13 11 12 12 12 14 12 15 11 9 10 10 8 7 7 7 7 6 6 6 6 6 5 5 4 4 4 4 4 5 5 5 5 4 4 2 1 2 2 2 1 0 -0 0 0 -0 0 1 2
12 11 12 12 12 14 14 15 12 12 11 10 9 9 8 7 7 6 6 6 5 5 4 4 4 4 3 3 4 5 6 5 5 4 4 4 2 1 1 2 2 1 1 0 -0 0 0 1 2
10 12 12 12 13 17 15 15 13 11 11 10 9 9 8 7 6 6 5 5 5 4 4 4 4 5 4 4 4 5 6 6 6 6 5 5 4 3 2 1 1 1 1 0 -0 -0 0 0 1
11 13 15 16 17 16 15 16 13 10 10 9 8 7 6 6 6 5 5 5 5 5 5 4 4 4 4 4 4 4 5 6 7 7 7 6 5 4 4 3 3 1 1 -0 -0 0 0 0 1
12 13 14 18 17 15 15 16 14 10 9 8 8 7 7 6 5 5 5 5 5 4 4 4 5 5 5 5 5 4 4 5 7 6 6 6 6 5 4 4 3 2 1 1 0 0 1 1 1
12 13 12 16 16 16 13 13 9 9 9 9 8 7 6 6 6 5 5 5 4 4 5 4 5 5 5 5 5 5 4 5 6 7 6 6 6 6 5 4 4 3 3 2 1 1 1 1 1
11 10 14 13 19 19 15 15 17 13 9 8 8 8 7 6 5 4 4 4 4 4 4 4 4 5 5 5 5 5 5 5 5 6 6 6 5 5 4 4 4 4 3 2 3 2 1 1 1
12 12 12 13 13 17 17 15 11 10 10 9 8 8 6 6 5 5 4 4 4 4 4 4 4 5 5 5 5 5 5 5 6 6 6 6 5 5 5 5 5 5 4 4 3 4 2 2 2
10 11 11 14 16 14 15 16 9 10 9 9 8 7 6 6 5 5 5 4 4 4 4 4 4 5 5 5 5 6 5 6 6 6 6 5 5 6 7 6 6 6 5 5 5 5 5 5 4